Theta_e
315 315 316 316 317 317 317 316 317 318 318 319 319 319 320 320 320 321 322 322 323 324 324 324 325 324 325 326 326 326 323 312 311 312 306 308 322 335 338 340 339 339 334 309 303 302 300 298 300 300 299 300 301 301 302 305 300 296 290 283 285 286 289 290 289 290 291 294 293 294 294 294 294 298 299 297 298 296 296 296 297 299 298 299 300 302 304 305
314 314 315 316 316 316 316 316 316 317 318 318 319 319 319 319 320 320 321 322 322 323 324 324 324 325 325 325 326 325 316 313 310 309 309 323 335 339 340 340 339 336 324 305 302 300 299 299 299 298 297 299 302 300 303 302 298 291 287 284 286 286 293 293 293 292 293 293 293 294 294 295 295 295 298 294 295 295 294 295 295 296 298 300 301 301 303 304
315 315 315 315 316 316 317 317 317 317 317 318 318 318 318 319 319 320 321 321 322 323 323 324 324 324 325 325 325 324 316 311 308 307 310 335 335 338 340 339 336 332 308 309 305 304 302 301 299 300 296 298 295 299 298 299 300 294 287 286 287 288 295 294 295 296 295 294 294 294 295 295 297 297 298 295 292 294 293 293 294 295 296 297 299 301 301 303
315 315 316 316 316 316 316 317 317 317 317 317 318 318 318 319 319 320 320 321 322 323 323 323 324 324 324 325 325 317 314 304 304 305 312 334 333 336 338 338 334 323 311 309 307 306 302 301 298 300 297 293 294 294 295 298 293 295 288 286 292 291 292 297 295 295 294 294 294 294 294 295 296 295 295 292 294 293 292 294 295 295 296 297 298 299 300 301
315 315 315 315 315 315 315 316 316 316 317 317 318 318 318 319 319 319 320 321 322 322 323 323 324 324 324 325 324 313 305 295 299 307 315 332 336 338 338 336 331 313 309 307 305 302 300 300 300 297 296 295 293 291 294 295 296 291 292 290 291 291 294 296 295 297 293 293 292 292 294 295 297 297 292 294 291 290 294 295 294 296 298 298 298 299 299 299
313 314 315 314 314 315 315 315 316 316 317 317 317 317 318 318 319 319 319 321 321 322 323 323 324 324 324 324 313 312 301 288 301 308 333 333 335 337 337 334 332 313 307 303 303 301 300 299 296 294 292 291 292 292 295 296 299 293 293 293 292 292 294 295 295 295 293 294 293 293 295 295 295 295 293 292 293 291 295 295 296 298 298 299 299 299 299 298
314 313 314 314 314 314 315 316 316 316 317 317 317 317 318 318 318 319 319 320 321 322 322 323 323 324 323 321 309 304 299 298 306 313 326 334 333 334 333 326 320 305 302 302 301 302 298 296 295 296 291 291 292 293 296 295 293 292 292 293 297 294 297 295 297 292 290 292 294 294 295 296 293 295 294 295 295 295 296 296 297 297 298 299 298 298 299 299
314 314 313 313 314 314 314 315 316 317 317 318 318 318 318 318 318 318 319 320 321 322 322 323 323 324 321 309 307 297 300 298 307 315 326 331 324 320 315 310 307 306 303 303 302 301 298 297 296 295 292 292 296 295 296 295 293 293 295 294 296 295 296 294 293 292 293 294 294 295 295 295 293 295 295 294 294 295 295 296 296 297 297 297 297 297 297 298
314 314 314 314 314 314 314 314 315 316 317 317 318 318 318 318 317 318 319 320 320 321 322 323 323 323 321 308 301 296 293 305 316 318 318 316 312 305 306 310 305 304 304 302 302 303 301 297 298 299 296 295 297 296 295 295 291 295 296 294 294 296 296 294 295 293 294 295 294 295 293 292 292 295 294 294 294 295 295 295 295 296 296 296 296 296 297 297
314 314 314 314 314 314 314 315 315 317 317 318 318 319 318 318 317 317 318 320 320 321 322 322 323 321 312 306 293 291 297 313 316 319 318 313 306 307 307 307 306 304 306 303 302 300 300 299 300 302 298 296 297 295 295 294 293 294 294 295 296 296 295 295 296 295 293 296 294 294 293 295 293 295 292 294 295 294 295 294 294 295 295 295 295 295 295 296
315 315 315 314 314 314 315 314 315 316 317 318 318 318 319 318 317 317 318 319 320 321 322 322 322 315 307 303 295 290 308 318 317 312 310 309 307 306 308 307 307 305 304 303 303 303 303 301 302 300 299 297 297 294 294 296 296 295 295 295 294 292 293 294 294 293 294 296 293 294 293 292 292 294 292 293 295 295 295 293 293 293 293 294 294 294 295 295
316 316 316 316 315 315 315 315 315 316 317 319 319 319 319 318 318 317 318 318 320 321 322 322 322 310 305 296 295 295 311 312 313 310 309 310 310 308 307 307 306 308 306 304 306 306 305 305 301 301 297 300 294 295 296 296 297 295 296 294 291 290 295 294 295 294 294 295 293 294 294 291 291 291 291 294 295 295 294 293 292 292 293 293 293 294 293 294
317 317 316 316 316 315 315 315 315 316 318 319 319 319 318 318 318 317 318 319 320 321 322 322 318 311 302 296 295 303 307 309 310 310 308 308 307 307 308 308 306 305 306 304 304 306 305 301 299 299 301 296 295 294 297 297 296 296 293 292 292 289 289 293 295 293 294 295 292 295 287 286 289 293 292 294 294 293 293 292 292 292 292 292 292 293 293 293
318 317 317 317 316 316 316 315 315 317 318 319 319 319 318 318 317 317 318 319 321 322 322 322 311 307 300 293 304 308 310 314 310 310 309 309 306 307 307 307 306 304 307 304 305 303 305 302 301 300 302 298 297 301 296 293 293 293 292 290 288 287 286 292 293 292 295 294 293 294 288 288 290 289 291 293 294 294 293 293 292 292 292 292 292 292 293 293
318 318 317 317 317 317 316 316 316 317 318 319 319 319 318 317 317 317 319 320 321 322 322 320 308 304 296 297 308 312 326 311 309 307 309 308 305 305 305 305 304 303 305 304 305 304 304 304 302 298 297 298 299 297 289 289 289 290 288 286 283 286 284 290 293 293 294 293 293 294 286 291 294 291 292 293 293 293 293 292 292 292 292 292 292 292 292 292
319 318 318 318 317 317 317 317 317 317 318 319 319 319 319 318 317 318 320 320 323 323 312 311 310 299 295 293 304 321 309 306 307 307 306 309 306 306 304 303 305 302 303 303 304 303 302 299 298 296 296 297 291 286 286 287 288 285 289 282 285 285 285 290 294 292 293 291 293 293 289 287 290 289 292 292 293 292 291 291 292 292 292 292 292 292 291 291
319 318 318 318 318 318 318 317 317 317 317 318 319 319 319 318 319 320 321 322 318 316 311 308 305 302 293 300 312 305 304 306 309 309 309 308 309 305 304 304 302 303 302 303 302 303 300 299 297 298 293 291 289 287 285 281 283 283 284 286 284 287 286 286 289 293 292 293 289 290 289 290 289 289 291 292 293 291 291 291 292 292 292 292 292 292 291 291
319 319 318 318 318 318 318 317 317 316 317 318 318 318 317 320 321 320 317 317 312 309 309 313 307 296 294 301 296 300 306 306 308 307 308 307 306 303 301 301 300 299 299 300 300 299 299 296 293 291 291 293 291 287 284 282 285 281 287 285 287 287 287 289 289 292 291 292 290 289 288 290 292 290 290 292 292 292 292 292 292 292 292 292 292 292 291 291
319 319 318 318 318 318 318 317 318 318 317 319 319 320 320 320 314 314 311 311 299 294 292 296 293 287 287 294 301 307 308 308 308 307 306 306 307 304 303 301 300 300 296 295 295 298 294 292 292 290 289 288 290 291 290 289 287 287 286 286 284 287 286 287 290 291 293 289 289 287 288 291 292 292 290 291 292 292 293 291 291 291 291 292 292 292 292 291
319 319 319 319 318 318 318 317 317 317 318 316 312 308 304 303 298 300 305 306 302 294 294 296 299 297 301 301 303 307 310 307 304 304 306 308 305 303 301 301 299 296 294 293 294 295 293 289 287 286 290 292 292 292 293 292 290 288 288 287 287 287 288 288 290 290 290 290 289 290 290 290 291 292 292 291 291 291 291 291 291 291 292 292 292 292 292 291
320 320 319 319 318 318 318 317 317 317 318 316 312 305 293 298 288 288 297 302 304 304 302 301 301 297 301 304 304 305 304 303 304 304 306 308 303 303 298 298 294 293 292 292 294 296 295 288 288 292 294 293 293 292 292 292 291 291 289 287 287 286 287 289 292 291 291 291 286 287 288 289 290 291 292 289 290 291 291 292 291 292 292 292 292 292 291 291
320 320 319 319 318 318 318 317 318 317 319 316 311 306 305 303 301 302 299 294 298 305 304 303 303 302 304 304 305 305 302 299 302 304 306 305 301 299 296 295 291 293 291 293 292 291 290 289 292 295 294 292 292 291 291 291 290 289 288 288 285 287 287 290 290 290 291 290 288 287 287 290 291 292 292 290 291 293 294 294 294 293 292 292 292 292 291 290
320 320 319 319 319 319 318 318 318 318 315 311 306 307 305 308 307 304 304 296 296 300 302 301 300 301 302 303 305 305 300 297 298 301 303 304 299 297 296 294 292 291 292 292 291 287 287 288 294 295 294 293 292 290 289 290 290 288 287 286 287 286 288 285 286 288 291 290 286 286 287 289 291 292 292 293 292 292 292 293 294 294 293 293 292 292 292 290
320 320 320 319 319 319 318 318 318 316 312 311 306 304 307 308 308 308 302 293 291 295 301 302 302 300 300 301 304 303 299 298 300 300 305 302 299 296 296 294 293 291 291 292 293 291 290 291 295 294 294 293 292 290 289 288 288 286 288 287 286 287 287 289 287 289 288 289 289 288 288 290 291 293 294 294 292 291 291 291 292 292 293 293 292 292 292 291
320 319 319 319 318 319 318 318 312 310 311 312 309 312 312 310 309 311 301 292 289 293 301 302 303 301 302 306 304 303 298 299 299 303 305 303 297 296 294 296 291 290 291 293 292 290 291 293 294 293 291 292 291 289 290 290 287 287 287 290 291 289 289 287 289 290 283 284 286 289 284 281 285 290 293 291 288 289 290 290 291 293 292 291 291 292 291 291
319 319 319 319 318 318 319 310 308 311 310 307 308 311 313 311 309 309 296 287 284 288 297 293 305 299 307 299 303 300 299 296 299 304 305 304 305 299 296 294 294 290 291 291 291 290 291 293 294 291 291 290 290 290 289 292 289 285 287 290 292 290 288 287 288 288 281 281 287 289 284 282 283 288 290 288 287 291 289 289 292 291 291 290 292 292 291 291
320 319 319 319 319 318 310 303 311 312 305 306 312 311 309 311 309 309 293 284 283 293 292 299 298 297 306 300 302 297 287 288 301 303 303 306 302 305 295 292 294 293 294 293 289 288 291 292 292 291 290 289 287 287 290 292 289 284 286 288 289 288 288 287 287 288 283 282 286 286 282 282 286 290 293 290 288 289 290 291 291 291 291 290 291 291 291 291
320 319 319 319 319 317 309 311 310 307 307 310 310 312 311 312 309 307 290 279 279 297 293 294 300 305 303 302 303 297 293 297 295 299 300 302 303 299 297 292 294 293 294 293 285 291 292 289 290 290 289 287 288 291 291 293 289 286 289 289 288 290 288 287 287 284 284 285 282 282 284 283 283 285 286 290 289 290 292 293 294 292 290 290 290 290 291 291
319 319 318 319 319 318 315 311 309 307 311 310 312 314 313 311 306 295 288 282 296 293 305 297 308 302 297 300 299 296 295 295 293 297 300 302 303 298 294 293 293 293 295 295 290 289 292 292 293 294 291 289 289 289 291 294 289 289 289 289 288 287 285 283 281 287 281 281 281 283 285 282 286 286 286 285 288 290 293 295 296 294 291 290 290 289 290 290
319 319 318 318 318 315 313 314 310 310 313 314 313 312 310 307 300 288 283 280 300 291 296 298 297 295 297 295 294 296 295 294 294 298 299 297 299 300 299 297 294 292 292 293 290 289 293 294 293 293 291 292 290 288 288 292 291 291 289 290 287 284 282 280 280 281 281 278 284 285 286 287 283 284 287 287 288 291 295 294 293 290 290 290 289 289 290 290
319 319 318 318 313 313 313 307 311 313 314 313 313 310 306 298 287 285 280 289 296 295 294 294 292 297 294 293 291 292 292 293 296 296 294 297 295 295 294 294 295 288 286 286 288 286 290 291 292 291 292 290 291 290 289 289 290 293 285 283 285 286 280 278 275 277 277 278 282 285 286 287 282 282 286 290 288 287 291 292 293 291 289 290 289 289 290 290
319 318 318 317 316 316 308 306 313 315 314 313 312 306 300 286 290 282 284 301 289 292 291 289 292 292 293 295 293 293 293 292 294 295 294 292 292 293 293 290 290 284 283 286 285 285 287 288 288 292 293 293 289 290 290 288 292 289 287 288 284 277 274 276 273 275 275 279 281 283 285 282 284 290 284 287 289 289 288 292 293 291 289 289 289 289 290 290
318 318 318 317 316 313 313 315 316 315 313 312 307 303 293 285 280 287 289 293 288 294 292 293 291 293 293 292 291 292 293 291 292 293 294 292 292 293 293 292 292 289 282 285 286 285 285 283 288 290 292 293 294 289 285 285 289 288 288 285 283 275 274 270 267 269 273 277 280 282 284 284 284 287 293 295 296 293 291 290 289 289 290 289 290 289 289 289
318 318 315 316 316 315 315 315 316 315 312 309 304 297 291 284 283 295 291 293 292 293 294 291 292 292 293 291 290 293 290 290 292 291 292 290 289 287 289 292 290 290 285 284 284 285 278 280 286 290 288 292 294 295 293 290 289 290 289 290 286 282 273 268 272 276 277 276 276 279 281 278 279 286 287 290 287 282 284 286 287 287 289 289 288 289 288 288
318 317 317 316 315 316 315 315 316 314 311 306 299 293 285 285 289 287 288 293 292 293 292 293 292 291 289 288 288 293 291 288 290 290 288 288 287 286 287 291 292 290 285 285 284 281 285 285 284 295 290 294 293 293 291 288 288 286 285 284 282 285 281 282 276 273 272 273 274 275 281 281 285 286 286 284 284 285 286 287 287 287 286 286 287 288 288 288
315 314 316 312 312 315 315 315 315 314 309 301 294 287 285 289 286 292 290 298 296 291 291 291 289 289 287 287 288 291 293 289 289 289 286 288 288 288 290 289 292 293 289 287 285 281 282 281 286 291 290 293 294 292 292 292 285 285 288 285 286 285 287 282 275 276 275 273 280 275 281 283 284 290 290 290 286 287 285 286 285 286 285 285 287 287 288 288
311 313 308 312 312 315 315 315 315 312 307 299 292 285 291 293 297 295 299 296 297 296 291 288 288 288 285 286 286 288 290 290 288 287 284 287 288 289 287 291 293 293 295 294 286 288 284 282 287 287 288 289 287 289 288 288 289 286 283 285 288 287 286 283 278 272 268 274 278 279 282 283 279 284 283 285 285 288 285 287 285 284 283 285 286 287 287 288
311 310 310 310 313 316 316 315 314 310 304 297 288 291 294 292 299 298 298 298 297 297 294 292 290 293 286 287 286 288 290 291 288 287 285 288 286 293 291 289 292 294 296 295 291 288 291 284 285 285 286 288 289 292 290 290 289 288 285 289 290 282 280 281 276 278 272 274 277 276 278 282 285 287 282 285 286 289 289 288 284 285 284 285 286 286 286 286
311 308 303 311 316 316 315 315 311 305 299 292 288 289 294 295 300 298 298 300 300 297 293 294 291 291 292 288 289 290 291 288 290 287 286 286 286 291 293 295 291 294 296 296 292 288 289 285 283 285 287 287 288 290 285 285 289 288 290 289 286 284 278 279 283 275 278 272 270 279 277 284 286 286 287 290 288 289 291 287 286 288 287 286 286 286 286 286
305 302 299 313 315 316 315 313 306 302 296 288 289 289 296 293 297 300 299 300 296 297 294 294 295 290 291 290 291 289 291 290 289 288 289 288 289 293 292 295 292 292 294 297 295 295 287 287 281 284 284 287 284 286 286 288 286 285 286 284 286 283 285 283 282 280 279 272 272 274 279 285 284 289 288 292 290 290 290 290 290 290 288 286 287 287 287 287
307 302 302 313 314 315 313 307 299 295 293 294 294 292 294 293 296 298 299 300 298 301 297 295 295 293 292 290 290 292 290 290 289 287 289 289 290 285 292 294 294 292 293 294 293 290 286 285 284 282 282 283 283 285 290 291 293 290 290 287 289 285 283 281 281 283 281 281 280 274 281 288 286 288 292 291 292 290 290 291 291 291 288 287 287 287 287 287
302 293 298 314 315 314 306 297 296 298 295 290 289 294 292 301 295 296 298 299 299 297 300 297 295 295 294 293 294 291 290 289 289 288 287 289 292 291 291 296 296 295 293 288 290 295 291 284 283 280 282 285 286 288 286 289 287 288 288 285 290 290 289 285 282 284 282 285 281 278 275 286 286 286 284 287 288 289 289 288 289 290 287 287 287 287 287 287
299 296 308 313 315 311 303 294 297 295 293 294 297 294 296 295 295 296 296 298 296 298 296 295 295 294 294 295 293 293 294 289 292 289 290 290 291 294 293 296 296 295 296 289 292 291 294 290 287 286 285 283 286 286 286 286 288 288 288 284 289 289 291 289 288 286 285 282 283 279 279 287 287 285 283 283 282 282 283 287 290 290 287 287 287 286 286 287
300 299 300 311 314 311 299 288 289 292 293 295 295 293 297 296 296 295 294 297 296 294 293 294 295 297 295 296 294 293 296 288 293 293 289 289 289 292 291 295 297 293 294 291 291 294 288 287 288 285 281 281 282 286 287 288 288 286 287 289 291 291 290 286 286 286 284 286 285 283 280 286 284 284 283 282 282 286 286 285 286 288 286 286 286 286 286 286
298 298 298 303 310 306 295 298 295 293 293 292 292 290 292 294 296 298 296 295 298 296 294 293 297 295 294 296 295 294 296 295 290 295 294 289 292 292 291 293 297 294 296 293 297 298 291 288 288 283 281 279 278 278 281 284 286 287 285 286 288 290 289 287 286 285 283 287 285 284 285 291 287 286 287 286 283 285 284 284 284 286 287 286 286 286 286 286
295 287 296 296 301 302 302 304 300 296 293 292 289 290 292 290 294 296 298 297 299 298 297 296 295 298 294 294 292 293 293 296 293 289 291 288 289 289 289 288 291 294 294 295 296 296 286 287 290 289 287 285 287 284 286 288 284 284 286 287 288 289 291 290 289 286 284 285 284 288 288 289 289 289 287 287 284 285 287 285 286 286 285 285 286 287 287 286
297 292 291 288 296 297 295 300 297 297 292 295 288 292 289 291 293 294 299 293 299 297 297 296 295 294 292 294 293 293 294 293 292 289 289 290 287 286 288 289 290 291 294 294 294 288 285 288 289 290 289 290 291 284 287 290 287 288 287 285 288 288 288 287 287 286 288 284 283 289 289 288 290 292 293 294 290 285 285 286 286 286 287 287 286 285 287 285
288 290 296 295 291 286 288 289 296 297 296 296 292 294 290 290 291 289 295 297 298 299 294 294 295 296 296 295 294 289 292 292 291 290 290 288 288 289 289 291 290 291 292 291 291 291 287 287 290 289 289 291 292 287 288 287 288 288 287 287 286 287 287 286 287 290 289 287 285 290 289 289 291 293 294 294 292 293 292 291 291 288 285 285 285 286 286 286
295 290 289 296 290 290 288 290 294 295 296 295 292 294 291 290 289 292 293 292 294 294 297 289 292 295 296 297 294 290 291 287 288 292 290 288 288 287 287 290 291 289 290 289 291 286 289 288 288 288 289 290 290 288 287 288 285 285 286 287 288 287 287 288 288 289 289 289 291 291 290 290 293 295 292 294 293 294 289 286 284 285 286 286 286 287 287 286
290 290 286 294 290 290 289 289 289 289 289 295 290 291 292 291 289 292 293 292 288 292 298 293 293 294 296 295 295 291 293 294 293 289 292 291 288 288 289 291 288 287 289 289 289 290 291 287 290 287 287 288 289 288 288 289 288 287 286 286 287 288 288 288 289 289 289 289 291 291 290 289 295 290 293 292 288 285 285 286 288 287 285 285 286 287 287 287
295 294 296 289 285 287 289 290 290 289 286 286 287 289 293 292 291 293 292 296 293 291 294 293 295 294 294 295 295 294 297 296 296 296 294 293 290 292 292 288 291 287 288 287 288 289 290 286 286 287 285 286 288 288 286 286 287 286 287 287 287 285 283 286 286 289 288 287 289 289 287 288 293 291 290 285 286 289 289 288 287 287 286 286 287 287 287 287
295 295 296 293 286 290 285 287 289 289 286 289 288 288 289 292 295 295 289 295 296 296 296 296 296 295 292 293 293 295 299 299 298 296 295 297 298 294 296 291 293 288 287 288 288 288 288 286 285 285 283 284 287 286 286 285 285 284 285 288 290 288 288 289 290 290 290 291 287 286 288 293 295 289 289 288 288 289 289 288 287 286 287 287 288 288 288 288
Wind_Speed
3 3 3 3 4 5 4 4 4 5 5 6 5 6 7 7 8 9 10 10 11 12 12 12 13 13 13 14 14 14 13 2 2 1 1 2 1 3 4 6 6 6 4 3 6 8 3 5 7 9 5 2 2 1 3 2 1 2 2 5 3 2 2 3 4 8 1 8 4 3 3 6 2 0 1 2 9 5 3 5 2 5 5 1 1 2 2 3
3 2 2 2 3 3 3 4 4 4 4 5 5 6 6 7 8 9 9 10 11 12 12 12 13 13 13 13 13 14 8 2 1 1 2 1 2 4 5 5 5 4 3 3 5 4 3 6 5 6 4 1 2 0 1 1 2 4 2 4 3 3 1 2 2 4 4 4 5 3 1 6 3 6 1 3 0 1 3 3 2 4 3 5 5 4 6 5
2 2 2 2 3 3 3 4 3 4 5 5 5 5 6 7 8 9 10 10 11 12 12 12 13 13 13 13 13 11 5 1 1 0 1 1 2 4 4 4 2 3 2 0 1 1 0 2 3 2 3 1 5 1 3 2 1 0 3 3 0 5 1 0 1 2 2 6 5 4 0 3 2 1 1 2 5 0 5 5 0 1 3 3 1 4 4 6
2 2 2 3 4 4 4 4 4 4 4 5 5 6 6 7 8 9 10 11 11 12 12 13 13 13 13 13 12 6 0 1 0 1 1 2 2 3 4 3 0 2 1 1 2 0 1 1 2 2 1 4 3 2 3 3 3 1 4 2 3 5 3 1 0 1 3 4 4 3 0 3 1 2 2 4 5 3 5 6 7 10 9 6 4 4 4 5
1 1 1 2 3 3 3 4 4 5 5 5 6 7 7 8 8 9 10 11 11 12 12 13 14 13 14 13 12 1 3 4 2 1 1 1 2 3 4 3 1 0 1 2 1 2 4 3 1 3 2 0 3 2 1 2 1 3 1 2 3 2 2 2 1 0 3 1 6 2 5 4 0 1 4 7 4 6 7 5 6 6 10 9 7 4 3 4
3 1 0 1 2 3 3 4 4 4 5 6 6 7 8 8 9 9 10 11 12 12 13 14 14 15 14 14 1 1 1 1 1 0 1 3 3 4 5 4 4 1 0 3 2 2 6 4 3 2 2 2 2 3 2 0 1 2 1 0 1 3 3 2 2 2 4 2 4 2 2 2 1 1 1 5 5 2 2 2 6 8 8 7 5 5 5 4
2 3 1 1 2 2 3 4 5 5 5 6 6 7 8 9 9 9 10 11 12 12 13 14 14 15 16 5 1 2 1 3 1 3 2 3 4 4 5 5 2 3 3 3 5 3 2 4 4 0 2 2 0 2 0 2 4 7 2 0 1 1 5 5 3 4 4 9 4 2 1 2 2 3 0 3 1 1 1 4 7 7 7 7 7 5 6 5
4 4 3 3 3 3 3 4 5 6 6 7 7 8 8 8 9 9 10 11 11 13 13 13 13 13 12 2 1 1 2 2 2 2 2 2 5 5 6 2 3 2 4 2 1 2 1 5 2 1 4 3 1 2 1 3 5 3 1 1 1 0 1 2 4 3 3 2 1 4 2 3 5 1 2 3 3 2 3 5 7 7 7 5 7 6 6 5
7 6 5 4 3 4 4 4 5 6 6 7 7 8 9 8 9 10 10 11 12 13 13 12 14 13 4 1 2 1 3 1 3 1 3 3 5 6 7 0 5 3 0 2 2 2 2 0 1 1 1 0 0 3 2 1 2 1 0 1 1 0 0 1 1 2 3 2 3 2 2 3 5 1 3 4 6 4 4 5 6 7 7 6 6 6 6 6
9 8 7 6 4 4 4 5 5 6 7 8 8 10 10 9 9 9 10 11 12 11 12 13 13 12 2 1 2 0 2 3 3 0 2 4 5 6 8 1 1 3 1 3 3 4 2 2 2 1 4 2 1 1 0 2 1 2 1 1 1 1 1 2 5 4 2 1 3 4 1 1 3 3 7 0 5 4 5 5 4 7 6 5 5 5 5 7
9 9 8 7 6 5 6 5 6 7 7 8 9 10 11 10 9 9 10 11 11 11 11 11 11 8 1 1 2 5 1 2 0 0 4 4 5 5 0 4 1 2 4 3 3 1 2 2 2 1 2 0 1 2 1 0 2 2 2 0 1 6 3 2 1 4 2 2 4 4 3 1 2 1 7 6 6 6 9 5 5 5 5 5 5 4 3 4
9 9 8 7 6 6 6 7 7 8 8 9 9 10 12 11 10 9 10 11 10 10 11 9 9 1 1 3 3 3 3 2 4 0 1 2 1 4 5 1 1 2 1 1 1 0 2 1 4 1 1 0 1 0 0 0 1 0 1 2 4 6 3 2 6 5 5 3 4 4 0 2 1 7 3 6 8 6 7 7 5 5 4 4 4 4 3 4
10 9 9 7 7 6 7 7 7 8 9 9 9 11 12 12 10 9 9 9 9 10 10 9 6 2 1 1 6 6 3 3 1 3 2 2 2 0 1 1 2 2 2 4 2 0 1 2 3 5 0 2 2 0 1 2 0 1 3 0 4 4 5 4 0 1 6 1 5 3 4 7 8 8 2 5 10 5 5 6 5 5 5 4 4 4 3 2
10 10 10 8 7 7 7 7 7 7 9 9 9 11 12 12 11 9 8 10 11 10 8 9 2 1 1 3 3 3 3 1 2 3 0 0 4 2 3 4 3 2 1 5 1 1 1 1 6 4 1 2 0 0 2 2 3 1 1 2 1 3 4 2 0 4 7 1 6 2 4 8 7 5 2 6 9 12 10 8 6 6 5 5 5 4 4 4
11 10 10 9 8 7 7 7 7 8 9 9 9 10 12 10 8 8 8 9 9 9 9 5 2 1 1 5 2 6 4 1 1 2 2 2 3 2 1 3 5 4 1 4 0 0 2 3 3 2 0 0 1 1 2 2 3 1 2 4 4 3 5 7 2 7 8 1 1 4 3 10 10 5 6 7 7 7 9 8 7 7 6 6 5 5 5 4
11 11 10 10 10 8 8 6 6 8 9 9 9 11 11 10 8 9 10 9 11 7 2 1 2 2 2 3 1 2 1 2 3 4 1 2 2 1 2 3 1 4 3 3 2 2 5 6 5 2 1 2 5 6 4 2 2 4 2 4 2 1 5 8 0 3 2 4 1 6 7 3 5 3 4 5 7 6 6 7 8 8 8 7 7 6 4 4
12 12 11 10 10 10 8 7 5 5 8 8 10 11 11 9 9 10 12 11 3 0 1 1 1 0 1 1 1 1 4 4 2 1 1 0 2 5 5 3 1 1 3 4 7 3 6 3 3 1 3 3 3 5 2 3 4 3 1 4 4 3 1 2 4 0 1 5 4 3 2 8 3 2 4 5 7 7 7 9 9 9 8 7 6 6 6 6
13 12 12 11 11 10 8 6 5 7 8 8 9 9 9 11 9 9 4 3 2 1 0 1 2 1 7 1 2 5 1 3 2 3 2 1 4 4 3 2 1 4 3 2 4 2 2 1 4 4 1 0 1 2 4 6 7 3 2 1 6 2 4 6 1 1 4 1 5 3 5 12 12 3 4 7 6 8 11 11 10 9 7 7 7 7 7 7
14 13 12 12 11 10 7 6 7 6 5 8 11 12 11 7 1 2 2 1 2 2 1 3 4 5 3 6 2 3 1 3 3 5 3 3 1 2 4 3 4 5 1 2 2 2 2 4 5 3 3 3 6 9 10 9 6 5 6 5 3 2 3 2 6 3 10 5 5 6 9 12 13 12 6 6 8 10 12 4 4 7 7 8 9 8 8 7
15 13 14 12 11 10 7 6 7 4 3 4 4 3 2 1 2 0 1 1 4 5 2 4 5 1 0 2 3 1 1 3 5 2 1 1 4 2 3 2 3 5 4 4 0 2 2 4 5 6 10 11 7 10 10 7 6 2 2 2 4 4 6 4 3 4 4 1 7 10 10 10 11 10 9 7 5 7 8 8 8 8 10 10 10 11 9 9
15 14 14 12 11 10 8 7 7 2 1 1 2 1 2 6 5 4 3 6 6 5 2 3 8 2 0 2 2 6 5 1 1 1 4 1 2 8 2 2 2 1 1 4 6 0 4 4 8 11 13 10 10 7 4 0 1 2 2 2 6 3 8 5 3 1 1 5 4 5 7 11 13 10 10 3 7 13 14 14 12 11 12 12 12 11 10 7
15 15 14 13 12 11 9 8 7 2 1 1 1 2 1 1 0 0 2 3 4 12 10 6 3 4 1 3 3 2 4 3 0 2 2 2 4 7 2 4 4 8 1 3 3 2 3 9 12 16 3 3 2 4 5 7 5 2 4 4 3 7 4 8 4 2 1 2 9 3 5 10 11 10 9 6 12 11 15 16 18 16 15 13 12 11 9 7
15 14 14 13 13 12 10 8 5 2 0 2 2 1 2 2 0 1 1 1 5 3 8 7 6 8 5 3 1 1 2 4 7 5 4 2 3 4 6 4 4 3 3 5 8 4 3 6 17 8 4 3 1 3 4 1 1 4 3 1 9 3 0 6 2 1 1 3 2 0 4 8 9 8 11 11 11 8 7 12 14 11 15 16 17 16 16 14
15 14 14 13 12 12 10 8 4 2 4 3 2 4 1 1 1 2 0 2 3 4 5 7 9 4 8 5 5 7 5 3 4 8 3 5 9 3 5 6 6 4 8 9 9 11 12 4 2 5 7 8 7 4 4 5 7 4 6 5 5 5 6 7 5 2 2 3 1 5 8 10 8 13 11 8 5 5 6 6 11 11 9 8 4 5 10 16
15 15 14 13 12 12 9 6 3 4 2 4 8 8 8 3 1 0 1 4 1 4 2 1 3 3 5 2 3 7 3 1 5 5 7 9 6 3 5 1 4 6 6 10 5 5 9 6 3 7 5 6 5 4 7 8 7 4 6 11 10 6 7 4 2 1 4 4 3 1 5 6 6 11 14 3 1 5 5 7 13 14 10 7 12 13 9 8
17 16 15 15 14 12 11 4 4 4 5 6 3 4 8 5 3 0 1 2 6 3 2 5 5 5 5 3 5 4 4 6 5 4 10 8 3 4 2 2 3 8 6 4 7 5 7 3 4 6 6 6 6 6 4 8 8 3 7 10 10 8 6 4 2 2 3 5 3 1 5 11 2 6 6 5 4 11 4 8 13 9 10 11 13 11 13 14
18 18 17 17 16 15 8 7 3 9 3 7 6 5 3 4 3 0 0 3 6 5 8 1 2 2 1 5 8 5 3 7 1 4 7 1 8 0 5 6 1 1 3 2 2 8 3 6 6 2 5 6 5 6 6 11 6 5 2 5 6 5 5 5 4 6 6 0 4 2 2 6 15 9 7 7 6 8 9 12 13 11 10 12 11 11 12 12
21 20 19 19 19 18 3 3 9 8 6 2 3 7 4 6 3 1 2 1 5 4 2 2 1 2 1 5 12 11 2 3 5 4 0 1 1 1 2 7 11 10 5 5 11 1 7 6 7 6 5 5 8 8 3 9 7 4 1 6 5 6 5 2 3 3 0 1 8 2 1 4 8 3 4 3 6 9 14 17 17 14 10 11 11 9 10 11
19 19 20 20 20 21 5 4 5 9 4 2 6 7 5 4 1 4 4 5 1 2 2 4 4 2 2 4 7 2 2 4 2 0 1 2 2 2 4 5 4 6 7 12 13 1 1 7 11 13 9 9 6 2 7 11 6 2 5 7 7 7 6 4 3 2 1 1 7 7 4 5 19 4 3 2 3 9 12 17 17 11 13 13 10 8 9 9
20 21 22 21 16 14 8 1 5 2 3 6 7 7 6 4 5 2 2 7 1 3 1 1 2 6 5 13 6 1 3 1 2 1 2 4 1 1 1 1 4 3 5 4 5 5 1 3 2 3 7 5 5 1 4 8 4 6 4 7 6 8 4 3 6 3 2 6 9 8 10 8 14 2 9 8 9 11 13 8 7 4 6 8 9 11 12 12
20 20 20 22 13 10 7 8 9 3 5 7 8 6 6 7 4 5 9 3 3 2 2 1 3 4 11 13 8 2 4 1 1 5 3 0 1 2 0 3 3 4 1 3 8 4 1 2 1 2 4 3 4 4 4 1 4 8 2 4 5 2 6 4 4 4 1 8 3 10 11 11 13 3 5 6 2 2 6 8 10 6 8 10 10 10 11 12
21 23 24 19 11 10 16 14 10 7 8 8 11 8 7 4 1 7 4 3 2 4 8 4 0 5 9 3 5 11 10 1 3 6 10 8 7 10 10 11 7 3 5 8 8 2 6 6 2 3 3 9 3 5 2 4 1 4 6 7 7 3 4 3 3 3 6 9 1 1 4 2 19 13 2 7 8 7 7 8 9 5 6 8 10 12 11 10
20 23 27 20 14 12 9 5 11 9 7 9 8 6 5 5 10 9 6 6 4 4 4 4 5 8 10 7 6 4 3 8 2 4 4 1 7 11 5 6 4 5 7 4 8 2 7 1 1 2 2 5 9 10 3 2 6 5 9 7 7 1 2 5 4 2 6 5 4 0 1 10 3 7 12 15 16 9 6 8 7 5 6 10 12 11 10 10
20 22 14 14 13 11 9 11 10 11 11 8 6 6 3 8 7 10 16 10 3 1 3 2 4 2 11 11 7 9 5 3 7 4 5 5 5 7 6 7 4 4 4 2 8 8 4 5 7 7 6 5 9 12 14 7 10 12 4 13 11 9 7 4 6 7 8 4 2 3 4 8 4 5 1 6 5 6 5 6 5 6 6 5 5 7 8 9
17 19 15 12 13 10 10 11 13 14 11 10 9 10 11 11 4 9 11 11 2 1 2 1 8 6 5 2 1 6 4 3 4 5 4 7 8 6 9 12 10 4 2 3 3 3 11 8 6 12 1 9 12 3 6 5 2 3 2 4 3 9 6 8 4 3 1 1 2 2 7 4 6 2 3 2 4 5 6 7 3 4 1 5 7 11 12 12
4 4 8 6 10 10 11 10 15 15 13 12 12 11 13 11 9 6 6 7 1 3 3 4 3 5 6 7 2 8 3 2 4 4 3 6 2 7 6 3 10 13 9 10 4 3 2 5 1 2 4 6 10 4 4 6 8 4 5 8 6 3 5 1 2 0 1 2 12 4 9 7 8 11 11 12 6 8 4 6 5 5 2 5 8 9 11 11
2 4 7 8 11 10 12 13 14 14 12 13 11 12 11 6 6 6 6 15 16 10 5 8 6 9 7 8 6 6 6 4 4 6 6 2 5 7 3 7 6 12 15 9 3 4 7 6 1 4 5 2 1 0 3 5 4 8 5 7 1 2 3 4 6 2 1 5 8 5 12 8 2 14 4 1 5 9 6 9 6 3 3 7 9 10 11 12
3 3 5 11 11 13 12 12 15 12 11 12 13 15 3 8 5 10 2 5 5 7 10 12 4 11 5 10 8 6 3 9 7 5 5 7 6 6 10 3 6 13 17 6 6 3 4 7 2 1 1 3 2 2 2 2 3 6 6 6 7 5 3 2 4 6 1 5 7 4 3 10 11 12 3 2 8 11 13 10 4 8 7 11 9 8 7 6
2 1 5 10 9 14 14 15 16 13 10 9 10 12 5 12 4 5 5 7 6 12 13 10 8 6 9 10 6 6 12 11 10 9 6 4 6 5 14 10 6 10 10 10 6 2 1 6 3 1 3 1 1 4 10 3 2 2 3 4 1 3 1 5 8 3 5 5 1 8 5 16 7 8 9 10 12 13 13 7 10 14 15 11 8 9 11 12
5 3 8 6 14 14 14 15 9 7 10 15 12 11 2 7 3 3 4 9 4 10 10 11 8 3 7 7 10 8 8 7 11 10 8 3 8 2 7 8 5 6 12 16 12 6 4 2 7 0 3 2 4 5 9 12 10 3 3 5 1 1 2 3 1 4 4 3 4 5 11 13 3 8 10 12 12 13 11 13 13 14 12 8 10 12 12 12
2 4 3 8 16 16 15 10 10 13 12 8 9 6 3 4 5 4 2 5 0 3 3 7 8 11 7 6 4 4 6 8 7 7 7 4 8 3 6 9 6 6 4 5 8 2 2 3 9 2 1 7 6 4 7 12 15 14 15 14 15 11 6 4 7 1 2 3 7 4 14 15 2 2 8 6 9 7 8 12 13 13 6 11 11 11 12 12
6 7 5 7 15 20 14 11 7 5 7 12 13 7 5 3 1 4 3 0 4 1 4 1 5 7 7 10 10 7 6 7 8 7 5 10 8 5 3 10 9 12 12 8 13 9 7 3 5 5 7 8 5 2 2 2 1 1 3 5 8 8 7 6 8 7 1 5 2 3 2 18 6 2 0 3 1 6 5 4 10 7 5 7 8 7 8 9
8 9 2 13 16 20 14 14 10 11 9 8 3 3 1 2 2 1 7 3 3 3 1 2 6 8 5 6 6 8 13 6 12 10 6 9 6 12 4 13 9 10 8 1 1 1 5 4 3 3 1 2 2 2 2 2 2 2 1 2 6 11 13 11 6 3 8 3 6 2 2 17 2 1 2 2 4 4 4 5 9 7 4 6 7 8 9 9
7 7 1 4 18 17 14 13 11 12 11 9 8 5 4 2 4 5 8 11 8 4 4 3 1 3 2 1 4 11 13 5 6 11 6 4 5 2 5 9 13 7 9 7 9 7 5 4 6 2 1 1 3 2 2 2 1 3 5 8 11 9 7 2 4 2 3 10 8 8 14 15 1 1 2 1 2 2 4 4 4 6 5 4 8 8 8 8
1 0 2 3 10 12 14 11 11 11 13 13 9 11 8 5 4 7 6 9 4 2 3 3 3 3 0 0 1 2 7 13 4 10 8 4 5 1 3 6 11 8 8 1 2 8 6 6 9 9 12 11 8 10 12 11 12 6 1 3 6 12 13 5 7 5 8 9 11 8 15 16 1 2 2 0 2 3 3 3 4 5 6 7 6 8 10 11
6 5 5 4 5 10 12 10 9 9 11 13 8 7 11 8 4 6 7 5 9 5 3 1 1 5 3 3 2 3 3 5 3 3 8 4 2 1 2 2 6 6 5 7 7 9 3 3 11 14 15 15 15 2 1 9 5 8 12 13 13 10 10 11 6 7 14 3 7 17 22 18 11 4 2 4 1 4 6 4 4 5 5 4 6 9 10 11
3 8 5 5 1 10 6 9 12 9 11 12 10 9 15 16 8 2 8 3 9 12 6 7 3 5 3 6 8 8 8 6 2 1 4 7 3 2 3 3 2 2 6 5 6 7 2 2 11 15 16 17 11 3 6 16 16 17 13 11 12 12 12 12 13 17 6 5 15 19 9 13 25 15 12 14 8 5 7 6 6 7 7 7 6 5 6 7
5 4 3 2 5 6 11 10 9 15 13 15 8 9 16 15 13 8 4 10 3 8 7 2 5 10 10 14 9 7 8 10 7 11 4 3 3 0 1 1 2 2 0 2 0 5 7 8 10 7 16 19 10 4 7 5 8 9 13 13 13 15 14 18 21 19 9 12 19 18 9 15 23 20 14 11 7 11 10 12 9 4 3 4 7 10 12 13
2 2 3 4 2 2 4 2 12 13 16 16 6 14 13 18 19 15 9 8 8 4 13 7 14 18 17 14 10 8 9 6 9 11 7 6 7 4 3 1 1 2 2 1 3 1 2 8 5 5 14 14 15 6 5 6 4 3 10 13 15 18 22 22 20 18 18 16 18 20 15 18 21 16 5 8 10 12 4 1 3 4 6 7 7 10 12 12
5 5 4 1 2 5 2 2 4 7 9 12 14 14 12 16 19 14 8 9 7 13 12 16 15 15 17 15 13 11 13 15 14 13 8 9 4 4 7 7 5 1 1 4 3 1 4 3 2 3 4 13 15 5 6 8 5 8 8 12 17 19 19 18 17 16 16 18 21 21 19 21 21 2 9 5 1 2 2 5 9 7 4 7 9 9 10 11
1 0 0 1 1 4 1 2 3 5 8 5 5 2 11 14 18 16 14 14 19 14 15 22 23 15 13 15 15 18 20 19 19 18 11 14 14 8 9 4 6 8 5 4 3 1 4 3 3 2 6 11 13 8 7 6 5 6 12 16 20 14 6 7 13 14 12 18 20 15 17 22 12 8 3 4 5 8 10 10 7 7 9 8 10 11 11 10
2 1 1 1 4 5 3 1 1 3 8 5 8 8 6 13 13 15 8 7 11 10 13 22 21 15 10 16 21 23 25 21 15 7 6 9 9 4 5 4 6 8 5 5 2 6 6 6 5 5 8 12 4 7 9 3 2 6 16 29 20 9 14 14 15 15 18 17 13 15 21 20 18 3 4 6 8 11 9 6 7 6 8 13 14 14 13 11
Wind_Direction
130 122 101 88 77 63 53 45 33 22 21 20 17 10 6 1 357 353 351 351 350 352 352 350 351 348 344 338 335 342 343 41 18 42 85 230 163 283 297 300 307 314 342 17 14 41 346 10 1 342 21 49 296 49 292 39 50 58 61 118 50 167 103 197 173 187 221 140 216 188 198 113 128 38 175 45 33 83 65 69 344 23 41 72 31 66 67 32
108 111 101 82 67 55 68 55 39 25 19 16 14 7 4 1 354 350 351 351 353 352 351 351 348 347 342 333 337 342 353 34 62 90 211 63 322 325 313 312 318 332 319 37 55 52 52 344 333 15 27 50 324 24 27 320 72 90 105 82 165 194 254 162 209 205 140 193 170 187 199 139 200 133 221 87 274 81 59 17 39 54 41 53 39 35 49 56
110 111 117 63 41 33 38 41 36 23 19 12 8 5 3 357 352 350 351 352 349 350 350 346 346 343 338 332 331 345 347 0 54 240 257 52 332 311 310 306 322 23 51 43 176 129 125 254 264 7 5 85 1 275 38 325 60 170 108 76 236 209 205 245 158 194 251 145 137 125 190 129 185 118 190 184 175 9 163 158 332 186 174 150 82 55 58 69
129 123 73 35 28 20 10 13 13 10 7 14 360 360 359 358 353 351 350 349 348 347 345 345 341 340 336 326 330 336 69 67 256 250 279 288 296 312 307 300 312 69 89 177 178 141 202 75 67 85 12 66 306 51 51 319 73 284 68 154 193 192 100 279 170 156 102 122 144 120 55 106 256 196 109 158 102 269 262 218 165 194 178 170 153 106 85 82
148 87 73 39 25 10 1 357 357 0 356 359 4 356 353 353 353 348 348 346 344 344 345 341 341 337 332 326 326 5 44 68 228 232 287 305 330 319 304 296 346 68 257 268 104 49 71 70 78 39 81 255 2 13 61 325 120 77 70 217 168 115 89 233 206 178 106 141 99 96 111 190 8 48 116 150 160 222 212 219 195 166 158 154 149 139 96 96
196 189 282 42 21 11 356 351 351 354 352 349 357 352 349 348 348 345 344 345 343 343 342 342 339 337 332 326 17 82 86 102 236 261 354 325 352 326 306 320 342 348 216 37 71 14 51 350 62 26 9 64 326 94 298 221 9 93 317 334 234 218 136 219 205 218 131 92 118 139 206 81 113 205 180 175 192 240 268 174 145 141 145 143 127 124 110 113
200 221 259 313 313 333 342 340 339 345 346 346 351 349 345 344 339 343 341 341 341 342 341 340 338 335 334 354 116 89 140 270 21 257 2 8 332 329 327 341 7 30 58 53 17 59 37 60 71 75 86 61 295 101 354 344 16 102 167 312 15 123 140 171 179 129 122 117 181 199 74 161 139 190 184 185 296 252 84 109 114 117 122 128 120 133 140 139
249 241 233 251 265 289 321 333 337 339 345 350 346 349 343 341 337 334 340 338 339 340 341 339 337 334 354 36 32 358 28 251 259 267 304 11 351 332 346 355 42 45 53 77 61 42 89 53 73 130 63 126 221 121 318 55 19 85 65 213 272 43 231 205 159 145 138 144 122 109 137 226 174 194 103 242 187 169 139 102 104 115 115 112 122 134 138 136
229 238 242 244 257 269 294 322 320 332 336 340 348 339 338 334 334 331 333 337 338 337 338 338 336 336 319 90 127 23 268 242 216 319 108 49 349 5 15 293 16 67 132 58 19 143 104 254 74 182 219 106 231 97 345 110 327 150 190 163 344 261 305 214 166 178 175 147 145 94 246 277 239 15 218 201 187 185 140 101 122 120 120 135 142 146 147 150
216 224 228 234 241 259 273 294 307 324 329 327 335 338 336 335 329 331 327 332 335 335 334 337 342 328 27 84 48 150 258 298 303 250 97 69 27 19 36 21 16 51 56 331 41 54 80 204 142 183 125 80 100 60 239 82 223 151 154 177 176 264 358 208 192 229 221 189 184 175 237 238 338 161 273 145 186 163 125 129 136 132 142 149 149 152 150 146
215 221 234 242 252 262 275 276 289 304 311 319 323 329 332 330 327 324 325 325 331 330 336 339 348 4 71 63 126 218 258 47 342 340 78 85 57 67 341 337 80 72 96 30 77 319 135 147 187 100 48 217 82 331 65 228 123 77 157 267 301 331 254 244 270 257 121 271 168 154 220 294 311 94 230 187 185 169 149 156 157 147 151 153 156 155 158 137
212 218 231 241 256 270 272 279 285 292 301 311 311 321 325 325 323 316 320 321 321 331 334 343 6 45 77 71 150 216 349 280 321 7 69 84 111 174 210 211 103 150 143 132 357 303 200 155 118 62 202 177 26 9 44 125 88 207 88 333 297 351 347 239 203 215 156 236 151 141 7 286 192 225 260 182 153 165 156 165 173 164 166 159 157 151 155 158
212 216 224 231 244 259 274 273 278 285 296 305 308 317 322 320 317 315 311 316 318 324 329 343 355 60 81 350 238 245 303 315 329 71 41 70 93 6 35 91 120 133 143 130 165 223 211 132 97 75 178 104 171 156 209 81 320 109 40 135 340 358 329 296 310 92 147 246 155 150 275 265 244 237 311 163 152 141 151 178 186 182 176 177 167 168 169 175
208 213 218 226 235 247 266 273 271 278 295 305 309 316 320 318 308 306 306 308 313 316 328 334 47 41 79 243 273 259 299 290 82 49 183 16 91 324 5 2 59 60 63 102 149 178 127 80 96 115 128 83 166 315 50 340 26 187 271 60 251 10 277 290 198 173 155 186 181 83 212 278 270 275 233 181 164 161 181 190 191 188 187 185 186 172 179 205
207 208 213 217 228 239 247 265 270 275 289 300 305 314 320 315 306 295 300 306 309 315 324 358 62 48 81 266 290 301 268 82 99 249 214 143 120 38 4 17 38 21 60 100 106 126 118 65 65 43 103 269 54 77 352 20 354 32 48 288 323 151 276 297 271 159 168 305 165 102 288 248 272 263 190 182 173 171 184 190 195 194 192 192 188 184 186 198
206 206 208 212 217 230 237 247 268 279 285 295 308 310 312 302 301 294 295 292 296 331 350 64 25 101 100 292 257 355 40 139 228 223 249 125 117 166 177 118 11 10 30 358 38 43 34 85 75 184 166 22 58 92 49 28 332 349 143 267 272 169 263 337 327 232 160 115 324 178 220 328 296 306 184 181 172 183 187 202 200 201 197 191 192 190 182 176
207 205 204 208 213 220 229 236 248 286 293 309 309 304 301 289 289 302 295 282 289 115 80 62 18 72 185 257 74 202 224 229 272 76 145 160 149 157 113 61 30 46 26 27 20 51 352 63 293 17 36 126 140 97 77 10 315 302 0 215 207 192 258 270 300 231 236 142 205 259 233 240 227 310 210 200 185 182 206 211 208 203 199 197 191 193 188 185
206 205 204 207 212 217 219 225 233 250 277 303 299 297 293 287 298 330 339 53 105 115 87 183 166 75 278 45 212 231 182 129 175 166 124 258 135 116 101 107 42 73 47 40 357 79 330 51 31 186 353 54 97 84 133 229 193 213 190 268 290 258 212 237 302 244 131 236 183 218 240 264 268 254 220 211 200 197 216 211 205 202 200 200 200 198 198 192
205 204 205 206 211 218 215 219 236 253 289 304 312 298 277 283 1 130 39 338 99 29 23 209 148 166 209 226 183 57 67 216 97 114 189 128 99 111 72 91 90 115 102 81 263 94 354 60 25 55 204 226 216 174 186 213 164 197 172 192 178 217 245 197 237 263 173 190 227 193 216 241 254 259 224 224 206 207 228 221 214 212 209 206 203 203 199 197
204 202 207 209 208 210 207 214 237 250 316 320 339 347 40 41 14 331 340 18 228 187 188 195 193 289 91 14 142 278 252 51 115 281 237 290 116 86 51 91 42 58 113 169 220 187 121 126 163 195 217 213 205 193 199 202 165 117 109 133 215 218 278 282 266 255 195 102 227 221 226 235 249 247 249 207 198 230 239 231 221 212 208 209 208 204 198 193
204 202 205 203 205 205 197 213 229 193 286 51 336 39 165 177 125 247 230 248 255 276 225 269 203 153 285 147 150 156 122 313 52 192 210 135 109 115 203 78 52 107 251 172 142 242 71 141 231 222 219 199 203 201 214 96 182 190 211 210 272 198 254 243 240 2 260 172 286 244 236 251 250 257 257 175 179 220 219 224 227 218 213 212 206 201 196 186
204 201 200 199 198 199 195 208 226 136 245 201 344 192 281 215 122 204 123 285 281 245 246 238 357 300 339 167 225 159 75 95 336 244 272 147 184 142 248 111 161 186 174 109 51 99 168 195 227 229 190 143 165 171 186 196 224 236 207 253 280 263 249 281 264 277 284 146 257 269 236 254 256 250 253 196 203 221 214 210 216 210 212 210 204 198 180 167
201 201 200 195 194 195 189 206 204 149 173 169 219 196 229 239 3 163 88 138 266 258 215 219 232 231 262 312 229 143 158 173 186 211 206 134 141 211 151 127 179 137 114 147 158 161 242 275 244 233 130 142 224 162 157 181 242 218 252 226 237 229 153 296 291 358 263 171 256 251 292 276 273 257 245 233 210 231 223 219 229 214 213 205 201 192 185 183
200 197 195 193 188 185 183 194 173 138 227 218 219 209 231 54 66 93 83 227 274 290 192 212 197 191 205 160 210 150 175 225 114 193 239 140 164 178 128 176 167 123 179 188 182 182 207 214 255 153 167 169 202 196 148 175 238 236 203 215 240 223 230 196 251 305 313 317 31 302 300 282 243 263 263 241 230 254 249 216 236 238 228 218 205 200 191 183
196 195 190 187 184 175 173 130 173 211 115 201 251 244 263 287 13 106 54 328 353 286 256 350 149 223 201 54 105 158 240 289 219 185 176 161 139 109 217 156 98 206 183 201 213 260 264 260 88 118 164 179 178 201 206 172 231 258 222 201 217 214 224 265 346 33 13 330 346 83 324 272 259 239 246 268 25 234 233 209 230 225 215 189 196 199 184 195
192 190 187 182 176 166 141 163 220 141 158 219 211 213 230 228 226 134 92 82 280 256 16 249 149 255 138 186 125 166 79 243 211 174 159 195 143 145 98 184 153 212 196 148 200 215 219 180 146 157 158 178 187 202 227 167 212 203 266 194 211 204 197 158 165 80 294 256 296 10 212 281 266 250 233 238 206 244 262 228 241 225 215 205 207 191 187 183
190 189 184 178 172 151 149 221 146 121 146 256 219 203 184 162 173 220 141 3 295 190 171 258 138 258 26 191 144 119 166 247 20 95 155 217 182 279 141 196 90 14 145 168 13 261 144 191 193 118 134 162 184 219 241 179 171 235 248 166 178 170 182 209 176 187 230 250 296 29 119 259 291 258 204 188 195 240 259 258 248 234 218 212 209 194 188 183
193 188 182 178 174 168 198 129 138 164 201 219 159 161 146 165 130 113 85 0 271 100 117 237 219 343 73 187 156 165 213 161 119 231 73 271 84 319 172 192 181 175 180 123 222 270 154 183 186 194 190 176 200 206 179 154 155 217 244 143 154 181 190 139 156 179 163 24 279 302 336 313 236 281 342 149 219 257 255 250 248 233 219 219 209 196 187 182
193 187 178 180 176 181 196 142 176 199 211 104 126 129 138 117 111 104 127 216 184 91 292 85 278 73 20 109 177 115 130 353 160 292 314 50 36 139 210 210 180 180 201 181 222 218 299 176 195 183 172 214 214 225 154 160 196 258 127 89 80 77 67 96 92 104 317 123 249 222 183 220 275 189 147 354 202 240 243 244 246 235 211 209 199 188 180 178
189 185 181 179 173 183 200 77 232 221 132 140 134 133 106 94 50 74 112 232 58 250 123 191 163 189 155 153 193 79 116 350 48 114 52 157 218 28 39 153 129 147 229 282 268 201 244 285 171 122 203 201 134 48 169 189 178 127 79 70 24 41 34 22 62 84 15 260 235 203 203 176 282 131 180 150 206 203 230 265 273 234 206 200 195 183 181 181
192 187 184 175 187 183 157 213 207 166 168 146 132 134 109 38 140 165 211 230 36 184 61 174 189 95 153 155 175 297 90 72 132 156 132 100 55 56 16 27 49 60 356 311 271 333 349 0 128 256 98 97 105 86 20 105 149 136 101 122 63 337 19 31 340 40 197 260 191 197 194 184 234 276 256 230 288 261 206 233 254 241 208 197 188 188 185 181
192 190 184 183 178 138 185 206 164 163 173 156 137 159 130 143 294 197 213 62 281 207 163 188 213 150 174 181 152 175 169 64 190 173 164 179 170 177 206 187 151 159 254 212 255 36 267 214 251 334 208 129 116 99 6 32 67 86 101 89 130 245 37 282 24 267 205 245 281 272 176 338 240 243 230 268 263 261 226 225 244 247 221 199 193 189 184 178
197 197 189 188 172 190 192 98 151 163 158 156 161 170 139 154 214 187 238 163 252 126 243 96 167 158 168 156 208 168 43 177 177 197 144 194 169 221 224 196 211 146 209 201 208 139 269 283 326 249 351 240 146 169 180 57 225 147 151 151 139 197 214 251 264 265 300 296 277 172 104 249 310 286 210 239 244 232 235 235 242 236 222 203 196 183 175 177
203 200 196 190 192 192 170 153 149 154 157 152 141 183 165 190 219 176 201 210 209 18 106 116 105 111 158 171 205 153 190 257 152 209 165 167 169 210 243 251 201 254 85 116 173 186 236 313 241 141 237 182 185 196 186 173 164 201 144 163 187 160 159 207 198 216 227 223 296 270 115 235 117 244 261 254 294 303 258 253 246 246 241 215 185 169 161 168
219 203 195 192 197 189 166 162 155 161 155 154 170 180 196 212 182 192 207 209 254 74 42 158 132 139 218 307 295 199 140 202 179 125 177 151 204 197 190 209 216 121 162 138 250 85 212 232 261 199 262 167 188 217 115 87 99 223 169 58 140 214 137 234 198 179 250 315 322 208 213 191 193 238 290 240 288 287 277 288 317 254 157 139 153 172 179 182
216 207 179 191 199 182 172 169 161 160 156 171 179 199 204 182 203 165 227 179 200 133 141 62 76 146 203 203 331 194 245 121 203 127 234 214 234 201 216 216 190 185 164 190 167 172 53 271 278 276 42 180 191 138 185 148 203 210 117 205 211 172 144 242 26 52 115 38 254 137 275 270 305 270 222 229 232 260 308 290 274 251 193 168 184 184 186 184
132 156 201 193 202 165 171 168 161 165 171 181 187 204 208 224 193 163 177 180 190 157 135 153 221 168 187 211 200 186 219 80 185 145 226 134 286 211 195 233 182 195 212 163 272 193 159 238 294 117 222 291 91 132 103 21 135 95 189 230 138 99 107 151 225 341 67 217 272 151 240 277 62 280 7 54 226 253 276 257 246 262 200 196 201 191 188 188
178 213 243 214 188 163 162 163 161 175 180 187 201 208 168 216 199 187 159 141 133 156 182 199 236 170 195 181 214 177 206 178 189 181 206 180 243 187 183 192 209 195 208 214 198 258 158 277 236 307 79 326 346 121 7 3 40 144 194 191 132 240 243 286 93 251 219 253 274 271 249 261 199 250 82 195 213 236 240 243 245 246 219 217 201 194 187 174
209 247 244 214 153 157 159 167 174 176 191 198 199 222 198 223 169 196 178 181 186 167 203 209 197 210 176 194 181 180 166 190 171 191 154 222 216 195 184 171 226 209 203 177 212 228 99 199 302 323 134 315 25 131 203 182 10 50 75 137 120 99 181 138 201 178 125 259 30 280 92 269 158 221 173 227 205 217 224 226 232 235 224 207 193 188 185 185
190 213 250 149 152 151 153 163 186 199 193 200 199 221 107 207 183 213 192 181 198 166 215 208 199 150 198 206 169 165 215 194 166 196 196 209 194 281 183 197 171 191 190 183 204 161 223 136 259 327 317 104 193 196 202 163 174 168 136 194 190 34 244 119 342 148 168 187 193 277 302 262 215 187 175 208 205 212 203 212 226 236 226 201 196 188 189 189
217 257 277 154 156 148 152 177 193 195 201 230 239 213 165 204 184 206 152 23 334 321 187 207 177 202 173 159 245 196 172 173 189 186 198 225 181 232 212 177 169 170 119 183 223 149 181 172 210 124 279 219 257 245 206 192 191 181 177 195 183 150 154 164 246 73 133 131 243 177 255 277 257 148 200 203 204 213 214 210 225 236 207 198 199 193 189 188
183 222 224 157 149 146 153 201 212 203 209 206 207 187 213 113 93 191 176 274 47 252 338 158 213 200 167 197 181 185 152 186 191 189 223 205 214 206 236 182 173 145 141 176 202 202 166 147 97 205 211 201 219 300 289 227 83 213 178 227 179 181 168 178 213 214 169 237 101 196 34 271 145 223 145 247 253 235 238 221 244 248 212 212 202 194 193 190
201 220 9 150 160 157 165 209 194 199 211 223 63 15 319 338 151 169 178 188 209 164 199 230 202 189 235 185 184 178 172 200 181 202 198 217 232 200 214 175 134 157 142 340 45 312 108 176 201 257 18 316 305 295 3 39 104 318 335 116 144 195 198 202 203 162 186 213 223 250 229 265 9 293 268 251 253 259 272 198 238 257 194 193 186 186 187 180
196 211 187 210 174 168 175 202 198 204 205 224 201 220 209 217 194 181 198 196 190 155 179 194 328 240 188 122 153 190 179 208 215 200 235 206 236 222 134 161 153 166 161 211 170 198 137 250 183 164 349 351 340 324 280 347 46 219 185 206 202 199 207 179 83 83 224 209 181 166 240 255 245 320 317 18 346 293 267 270 214 243 258 217 182 178 182 182
161 122 180 216 184 183 202 189 206 199 199 214 185 194 183 222 218 222 186 205 199 198 126 248 188 133 179 135 123 25 208 202 175 218 201 193 220 56 347 159 189 176 197 210 147 166 167 163 152 197 211 219 216 202 204 200 203 194 258 161 199 188 195 148 226 195 225 233 142 213 248 254 15 317 303 329 343 291 265 244 265 229 219 201 189 181 183 180
195 215 170 204 237 209 212 211 218 202 202 199 190 198 194 213 207 208 171 220 194 215 218 97 46 129 169 134 207 215 238 275 193 202 186 224 220 323 220 342 205 197 193 155 156 154 188 192 183 194 208 220 230 218 10 92 67 193 212 183 205 207 199 201 212 218 223 193 172 222 232 264 264 233 263 268 289 254 276 297 256 253 251 223 196 190 185 185
294 216 163 199 149 252 241 208 205 209 216 177 213 160 202 210 200 193 178 223 191 202 210 196 179 174 215 185 202 214 213 233 336 213 209 201 232 221 311 134 51 29 157 131 165 92 102 217 223 214 220 232 229 144 202 163 181 207 194 202 200 190 197 193 203 224 144 99 249 242 221 249 260 251 249 257 260 259 257 264 269 245 228 207 197 178 174 178
221 273 240 222 203 203 222 241 215 207 209 184 201 160 200 201 200 200 171 223 169 191 200 199 211 215 196 197 182 203 190 210 184 223 207 234 112 294 82 335 188 294 117 144 332 154 155 205 226 196 234 238 229 130 157 172 184 189 194 198 196 203 196 203 217 222 173 207 235 252 159 229 254 252 243 249 218 239 228 231 234 211 175 167 171 185 192 192
263 321 268 301 202 240 221 246 198 210 207 194 198 193 198 196 204 201 184 182 203 193 196 214 210 210 209 205 193 200 190 184 221 220 195 189 183 140 170 42 246 356 105 100 130 32 142 227 210 176 234 244 245 183 181 171 195 171 204 206 204 203 208 208 217 217 215 226 239 253 243 238 249 258 236 231 213 226 231 91 109 165 201 188 190 201 202 196
191 205 274 298 192 279 230 3 143 182 240 192 198 203 200 195 207 202 205 162 179 210 192 214 222 214 212 210 203 210 208 208 201 209 193 162 212 197 201 186 152 330 145 151 141 280 134 275 79 147 232 250 248 210 163 215 200 221 217 217 220 216 213 211 217 226 225 238 241 246 258 263 257 149 233 219 153 85 129 195 210 207 169 184 199 209 211 206
304 111 340 159 315 247 293 227 222 184 194 232 236 220 210 204 214 197 206 190 189 186 187 207 218 211 209 210 211 218 220 217 219 217 183 170 198 207 171 249 140 151 153 118 126 167 151 230 45 106 221 253 248 214 215 205 219 243 258 242 230 215 208 209 220 221 208 223 234 244 251 251 256 155 251 129 166 195 211 216 211 204 190 176 195 207 206 205
198 260 162 186 264 183 164 261 153 188 221 197 187 210 207 216 212 189 218 216 218 214 193 202 212 204 203 203 212 216 219 217 223 214 176 196 200 156 174 183 147 138 167 168 124 140 173 141 166 169 217 234 282 147 199 166 200 254 242 241 231 196 205 216 225 221 217 216 224 226 238 245 251 175 191 224 201 220 223 208 220 221 197 188 195 202 199 193